{"data":{"norad_id":60283,"epoch":"2026-05-25T03:18:41.167872Z","epoch_age_seconds":63019,"freshness":"FRESH","line1":"1 60283U 24132F   26145.13797648 -.00002013  00000+0 -55845-4 0  9992","line2":"2 60283  53.1619  57.4281 0001195  90.4404 269.6733 15.30203812103263","mean_motion":15.30203812,"eccentricity":0.0001195,"inclination_deg":53.1619,"raan_deg":57.4281,"arg_perigee_deg":90.4404,"mean_anomaly_deg":269.6733,"bstar":-5.5845e-5,"rev_number":10326,"period_min":94.105111273896,"perigee_km":474.38471328591,"apogee_km":476.02266171023,"semimajor_km":6853.3406874981,"source":"CELESTRAK","updated_at":"2026-05-25T13:38:19.204541Z"}}